SL-8 DEB, 1478

Orbit data source: Space-Track

SL-8 DEB, 1478 is space debris in LEO originally from a launch on Mon, 15 Mar 1965 UTC launched from the Tyuratam Missile And Space Complex (TTMTR). Debris objects in space refer to the collection of defunct objects orbiting the Earth. Examples of debris include non-operational satellites, rocket bodies, and fragments generated from explosions, collisions, or faulty payload assembly.

Loading next visibility...
Identifier
1478, 1965-020BC
Orbit
LEO
Country
Flag of CISCIS
Related business
Manufacturer
Unknown
Mission
Spacecraft
Bus & Motor
Unknown
Mass
Unknown
Launch date (UTC)
1965-03-15 (61 years ago)
Launch vehicle
Unknown
Launch site
Tyuratam Missile And Space Complex (TTMTR)
Object type
Payload
Rocket body
Debris
Shape & HBR
Unknown shape, 0.1 m
Radar Cross Section
Medium (>0.1 m² and <1 m²)

Expand to show TLE details & history
Last TLE update: 1 day ago

TLE from 1 day ago
0 SL-8 DEB
1 01478U 65020BC  25288.69030845  .00006480  00000-0  30654-2 0  9991
2 01478  56.0791  69.2240 0595143 194.3369 164.0039 13.54349884891724
Epoch: 2025-10-15T16:34Z
TLE epoch observation values (Epoch: 2025-10-15T16:34:02.650Z)
Latitude
0.00001°
Longitude
156.2522°
Altitude
1,484.578 km
Speed
6.915 km/s
True Right ascension
04h 36m 53s
True Declination
0° 00' 00"
Sunlit
Object was in full shadow at epoch
Visualization orbit readout
Latitude
Unknown
Longitude
Unknown
Altitude
Unknown
Speed
Unknown
Apparent Right ascension
Unknown
Apparent Declination
Unknown
Sunlit
N/A
Visualization observer readout
Local Sidereal Time
13:23:09
Azimuth
Unknown
Elevation
Unknown
Doppler factor
Unknown
Orbital elements
Apogee altitude
1,498.55 km
Perigee altitude
613.662 km
Semi-major axis
7,434.243 km
Eccentricity
0.05951
Inclination
56.0791°
RAAN
69.224°
Arg. of periapsis
194.3369°
True anomaly
165.75726°
Mean anomaly
164.0039°
Eccentric anomaly
164.89262°
Mean motion
3.38601 °/min
Orbital period
106.32 mins
BSTAR
0.0030654
Loading maneuver chart data...
Computing Atmospheric mass density...

Documentation

Showing up to 5 results
|